This demonstration page uses our WeatherBlox Daily Observations layout. Learn more.

Left ArrowRight Arrow

Hourly Observations for November 26, 2015

Temp ( °F °C ) Dew Point ( °F °C ) Humidity (%) Winds ( mph kmh ) Pressure ( in mb ) Visibility ( mi km ) Precip ( " mm )
12:53 am 00:53 Mostly Cloudy 48 8.9 34 1.1 58 58 Calm 30.47 1032 10 16 0.00 0.00
1:53 am 01:53 Mostly Clear 47 8.3 36 2.2 66 66 ESE 5 7 30.47 1032 10 16 0.00 0.00
2:53 am 02:53 Mostly Cloudy 47 8.3 36 2.2 66 66 E 3 6 30.48 1032 10 16 0.00 0.00
3:53 am 03:53 Mostly Clear 43 6.1 35 1.7 74 74 ESE 3 6 30.49 1032 10 16 0.00 0.00
4:53 am 04:53 Cloudy 46 7.8 37 2.8 71 71 ESE 3 6 30.50 1033 10 16 0.00 0.00
5:53 am 05:53 Cloudy 47 8.3 37 2.8 69 69 ESE 3 6 30.52 1034 10 16 0.00 0.00
6:53 am 06:53 Mostly Cloudy 48 8.9 36 2.2 63 63 ESE 5 7 30.53 1034 10 16 0.00 0.00
7:53 am 07:53 Mostly Cloudy 49 9.4 35 1.7 59 59 ESE 3 6 30.55 1035 10 16 0.00 0.00
8:53 am 08:53 Mostly Cloudy 51 10.6 36 2.2 56 56 VRB 3 6 30.57 1035 10 16 0.00 0.00
9:53 am 09:53 Cloudy 54 12.2 37 2.8 53 53 S 7 11 30.57 1035 10 16 0.00 0.00
10:53 am 10:53 Cloudy 56 13.3 37 2.8 49 49 VRB 6 9 30.57 1035 10 16 0.00 0.00
11:53 am 11:53 Partly Cloudy 61 16.1 39 3.9 44 44 SW 8 13 30.53 1034 10 16 0.00 0.00
12:53 pm 12:53 Cloudy 63 17.2 40 4.4 43 43 VRB 6 9 30.50 1033 10 16 0.00 0.00
1:53 pm 13:53 Cloudy 66 18.9 42 5.6 42 42 SSW 7 11 30.48 1032 10 16 0.00 0.00
2:53 pm 14:53 Partly Cloudy 67 19.4 43 6.1 42 42 VRB 7 11 30.44 1031 10 16 0.00 0.00
3:53 pm 15:53 Sunny 67 19.4 43 6.1 42 42 SSW 7 11 30.44 1031 10 16 0.00 0.00
4:53 pm 16:53 Sunny 65 18.3 43 6.1 45 45 S 5 7 30.44 1031 10 16 0.00 0.00
5:53 pm 17:53 Clear 60 15.6 42 5.6 52 52 Calm 30.44 1031 10 16 0.00 0.00
6:53 pm 18:53 Clear 57 13.9 42 5.6 58 58 SE 3 6 30.44 1031 10 16 0.00 0.00
7:53 pm 19:53 Clear 56 13.3 42 5.6 60 60 Calm 30.43 1031 10 16 0.00 0.00
8:53 pm 20:53 Clear 50 10 41 5 71 71 Calm 30.43 1031 10 16 0.00 0.00
9:53 pm 21:53 Clear 58 14.4 42 5.6 56 56 VRB 5 7 30.43 1030 10 16 0.00 0.00
10:53 pm 22:53 Clear 58 14.4 42 5.6 56 56 S 6 9 30.42 1030 10 16 0.00 0.00
11:53 pm 23:53 Clear 57 13.9 42 5.6 58 58 VRB 3 6 30.42 1030 10 16 0.00 0.00

Powered by AerisWeather